User: anonymous   Login
Location: Unspecified
(0.0000°N, 0.0000°E)
Time: 10:57:03
(UTC+00:00)
Language:

deb Delta 104 - Orbit

View from above orbital plane
View from above orbital plane
View from above satellite
View from above satellite

Ground track
Ground track

The orbit is defined by the following mean orbital elements,

1 14879U          26068.31069641 +.00000000 +00000-0 -57638-4 0 00008
2 14879 101.2860   1.0041 0213492 265.3344 223.4429 12.15607281    02
Epoch (UTC): 09 March 2026 07:27:24
Eccentricity: 0.0213492
inclination: 101.2860°
perigee height: 1441 km
apogee height: 1782 km
right ascension of ascending node: 1.0041°
argument of perigee: 265.3344°
revolutions per day: 12.15607281
mean anomaly at epoch: 223.4429°

The dashed part of the orbit path shows where the satellite is in the earth's shadow,  

DLR